When you browse on this site, cookies collect data to enhance your experience and personalize the content and advertising you see.
Visit our Privacy Policy to learn more. By continuing to use the site, you agree to this use of cookies and data.
  • Em Portugal
  • Lista de países
  • Para 7 dias
  • Temperatura da água
  • Mapa do tempo
  • Widgets de tempo
  • user-avatar
    Iniciar Sessão

    Previsão horária em Midlothian

    Hoje, 17 Setembro, Terça-feira

    Tempo Temperatura Precipitação Vento Pressão Humidade
    00:00 +7°C° 0 mm 5 m/s 742 mmHg 86%
    01:00 +6°C° 0 mm 5 m/s 742 mmHg 88%
    02:00 +6°C° 0 mm 5 m/s 742 mmHg 89%
    03:00 +6°C° 0 mm 4 m/s 743 mmHg 90%
    04:00 +5°C° 0 mm 4 m/s 743 mmHg 90%
    05:00 +5°C° 0 mm 4 m/s 743 mmHg 90%
    06:00 +4°C° 0 mm 3 m/s 743 mmHg 89%
    07:00 +7°C° 0 mm 3 m/s 744 mmHg 82%
    08:00 +8°C° 0 mm 3 m/s 744 mmHg 75%
    09:00 +9°C° 0 mm 3 m/s 745 mmHg 67%
    10:00 +10°C° 0 mm 3 m/s 745 mmHg 64%
    11:00 +11°C° 0 mm 3 m/s 745 mmHg 60%
    12:00 +12°C° 0 mm 3 m/s 745 mmHg 56%
    13:00 +13°C° 0 mm 2 m/s 746 mmHg 56%
    14:00 +13°C° 0 mm 2 m/s 746 mmHg 55%
    15:00 +13°C° 0 mm 1 m/s 746 mmHg 55%
    16:00 +12°C° 0 mm 1 m/s 746 mmHg 61%
    17:00 +11°C° 0 mm 1 m/s 746 mmHg 66%
    18:00 +9°C° 0 mm 0 m/s 746 mmHg 72%
    19:00 +9°C° 0 mm 1 m/s 746 mmHg 74%
    20:00 +9°C° 0 mm 1 m/s 746 mmHg 76%
    21:00 +8°C° 0 mm 1 m/s 747 mmHg 78%
    22:00 +9°C° 0 mm 1 m/s 747 mmHg 77%
    23:00 +9°C° 0 mm 1 m/s 747 mmHg 76%

    Amanhã, 18 Setembro, Quarta-feira

    Tempo Temperatura Precipitação Vento Pressão Humidade
    00:00 +9°C° 0 mm 1 m/s 747 mmHg 75%
    01:00 +9°C° 0 mm 1 m/s 747 mmHg 74%
    02:00 +9°C° 0 mm 1 m/s 747 mmHg 74%
    03:00 +9°C° 0 mm 1 m/s 746 mmHg 73%
    04:00 +9°C° 0 mm 1 m/s 746 mmHg 71%
    05:00 +8°C° 0 mm 2 m/s 746 mmHg 70%
    06:00 +8°C° 0 mm 2 m/s 746 mmHg 68%
    07:00 +9°C° 0 mm 2 m/s 747 mmHg 70%
    08:00 +10°C° 0 mm 3 m/s 747 mmHg 71%
    09:00 +11°C° 0 mm 4 m/s 747 mmHg 73%
    10:00 +12°C° 0 mm 4 m/s 747 mmHg 73%
    11:00 +14°C° 0 mm 4 m/s 747 mmHg 74%
    12:00 +15°C° 0 mm 4 m/s 747 mmHg 75%
    13:00 +15°C° 0 mm 4 m/s 747 mmHg 75%
    14:00 +15°C° 0 mm 4 m/s 747 mmHg 75%
    15:00 +17°C° 0 mm 4 m/s 747 mmHg 75%
    16:00 +15°C° 0 mm 4 m/s 747 mmHg 79%
    17:00 +14°C° 0 mm 4 m/s 747 mmHg 84%
    18:00 +13°C° 0 mm 3 m/s 747 mmHg 88%
    19:00 +12°C° 0 mm 3 m/s 747 mmHg 90%
    20:00 +11°C° 0 mm 3 m/s 747 mmHg 92%
    21:00 +10°C° 0 mm 2 m/s 748 mmHg 94%
    22:00 +10°C° 0 mm 2 m/s 748 mmHg 94%
    23:00 +10°C° 0 mm 2 m/s 748 mmHg 94%

    Depois de amanhã, 19 Setembro, Quinta-feira

    Tempo Temperatura Precipitação Vento Pressão Humidade
    00:00 +9°C° 0 mm 2 m/s 748 mmHg 95%
    01:00 +9°C° 0 mm 2 m/s 748 mmHg 95%
    02:00 +9°C° 0 mm 2 m/s 748 mmHg 95%
    03:00 +9°C° 0 mm 2 m/s 747 mmHg 95%
    04:00 +9°C° 0 mm 2 m/s 748 mmHg 96%
    05:00 +9°C° 0 mm 2 m/s 748 mmHg 96%
    06:00 +9°C° 0 mm 2 m/s 748 mmHg 96%
    07:00 +10°C° 0 mm 2 m/s 748 mmHg 93%
    08:00 +13°C° 0 mm 2 m/s 748 mmHg 90%
    09:00 +14°C° 0 mm 2 m/s 748 mmHg 87%
    10:00 +15°C° 0 mm 2 m/s 748 mmHg 82%
    11:00 +16°C° 0 mm 2 m/s 748 mmHg 77%
    12:00 +17°C° 0 mm 2 m/s 748 mmHg 73%
    13:00 +18°C° 0 mm 3 m/s 748 mmHg 74%
    14:00 +18°C° 0 mm 3 m/s 748 mmHg 74%
    15:00 +18°C° 0 mm 3 m/s 748 mmHg 75%
    16:00 +17°C° 0 mm 3 m/s 748 mmHg 80%
    17:00 +16°C° 0 mm 2 m/s 747 mmHg 85%
    18:00 +14°C° 0 mm 2 m/s 747 mmHg 90%
    19:00 +14°C° 0 mm 2 m/s 747 mmHg 91%
    20:00 +13°C° 0 mm 2 m/s 747 mmHg 92%
    21:00 +12°C° 0 mm 2 m/s 747 mmHg 93%
    22:00 +10°C° 0 mm 2 m/s 747 mmHg 93%
    23:00 +10°C° 0 mm 2 m/s 747 mmHg 92%

    20 Setembro, Sexta-feira

    Tempo Temperatura Precipitação Vento Pressão Humidade
    00:00 +10°C° 0 mm 2 m/s 746 mmHg 92%
    01:00 +9°C° 0 mm 2 m/s 746 mmHg 91%
    02:00 +9°C° 0 mm 2 m/s 746 mmHg 90%
    03:00 +9°C° 0 mm 2 m/s 746 mmHg 89%
    04:00 +9°C° 0 mm 2 m/s 745 mmHg 89%
    05:00 +9°C° 0 mm 2 m/s 745 mmHg 89%
    06:00 +8°C° 0 mm 2 m/s 744 mmHg 89%
    07:00 +10°C° 0 mm 2 m/s 744 mmHg 84%
    08:00 +13°C° 0 mm 2 m/s 745 mmHg 80%
    09:00 +15°C° 0 mm 2 m/s 745 mmHg 76%
    10:00 +16°C° 0 mm 2 m/s 744 mmHg 73%
    11:00 +17°C° 0 mm 2 m/s 744 mmHg 70%
    12:00 +19°C° 0 mm 2 m/s 744 mmHg 67%
    13:00 +19°C° 0 mm 2 m/s 743 mmHg 68%
    14:00 +19°C° 0 mm 2 m/s 743 mmHg 69%
    15:00 +19°C° 0 mm 3 m/s 742 mmHg 69%
    16:00 +18°C° 0 mm 2 m/s 742 mmHg 76%
    17:00 +17°C° 0 mm 2 m/s 741 mmHg 82%
    18:00 +15°C° 0 mm 2 m/s 741 mmHg 88%
    19:00 +15°C° 0 mm 2 m/s 741 mmHg 89%
    20:00 +14°C° 0 mm 2 m/s 740 mmHg 90%
    21:00 +13°C° 0 mm 2 m/s 740 mmHg 92%
    22:00 +13°C° 0 mm 2 m/s 740 mmHg 91%
    23:00 +12°C° 0 mm 2 m/s 739 mmHg 90%

    21 Setembro, Sábado

    Tempo Temperatura Precipitação Vento Pressão Humidade
    00:00 +12°C° 0 mm 2 m/s 739 mmHg 90%
    01:00 +10°C° 0 mm 2 m/s 739 mmHg 88%
    02:00 +10°C° 0 mm 2 m/s 738 mmHg 87%
    03:00 +9°C° 0 mm 2 m/s 738 mmHg 86%
    04:00 +9°C° 0 mm 2 m/s 737 mmHg 86%
    05:00 +9°C° 0 mm 2 m/s 736 mmHg 85%
    06:00 +8°C° 0 mm 3 m/s 736 mmHg 84%
    07:00 +10°C° 0 mm 3 m/s 736 mmHg 79%
    08:00 +12°C° 0 mm 4 m/s 735 mmHg 75%
    09:00 +14°C° 0 mm 5 m/s 735 mmHg 70%
    10:00 +15°C° 0 mm 6 m/s 735 mmHg 66%
    11:00 +16°C° 0 mm 6 m/s 734 mmHg 63%
    12:00 +17°C° 0 mm 7 m/s 734 mmHg 59%
    13:00 +17°C° 0 mm 7 m/s 733 mmHg 60%
    14:00 +17°C° 0 mm 7 m/s 732 mmHg 60%
    15:00 +17°C° 0 mm 7 m/s 731 mmHg 61%
    16:00 +16°C° 0 mm 6 m/s 731 mmHg 65%
    17:00 +15°C° 0 mm 6 m/s 730 mmHg 68%
    18:00 +14°C° 0 mm 5 m/s 730 mmHg 72%
    19:00 +14°C° 0 mm 5 m/s 730 mmHg 73%
    20:00 +14°C° 0 mm 5 m/s 729 mmHg 73%
    21:00 +14°C° 0 mm 5 m/s 729 mmHg 74%
    22:00 +14°C° 0 mm 4 m/s 729 mmHg 76%
    23:00 +14°C° 0 mm 4 m/s 728 mmHg 79%

    22 Setembro, Domingo

    Tempo Temperatura Precipitação Vento Pressão Humidade
    00:00 +14°C° 0 mm 3 m/s 728 mmHg 82%
    01:00 +14°C° 0 mm 3 m/s 728 mmHg 85%
    02:00 +14°C° 0 mm 3 m/s 728 mmHg 88%
    03:00 +13°C° 0 mm 3 m/s 728 mmHg 91%
    04:00 +13°C° 0.3 mm 3 m/s 728 mmHg 91%
    05:00 +13°C° 0.3 mm 3 m/s 728 mmHg 92%
    06:00 +13°C° 0.3 mm 4 m/s 728 mmHg 92%
    07:00 +13°C° 0 mm 4 m/s 728 mmHg 90%
    08:00 +13°C° 0 mm 4 m/s 728 mmHg 88%
    09:00 +13°C° 0 mm 4 m/s 728 mmHg 86%
    10:00 +13°C° 0.1 mm 5 m/s 728 mmHg 83%
    11:00 +14°C° 0.1 mm 6 m/s 729 mmHg 80%
    12:00 +14°C° 0.1 mm 7 m/s 729 mmHg 77%
    13:00 +13°C° 0 mm 8 m/s 729 mmHg 74%
    14:00 +13°C° 0 mm 8 m/s 729 mmHg 71%
    15:00 +13°C° 0 mm 9 m/s 729 mmHg 68%
    16:00 +12°C° 0 mm 8 m/s 730 mmHg 73%
    17:00 +11°C° 0 mm 7 m/s 730 mmHg 77%
    18:00 +10°C° 0 mm 6 m/s 731 mmHg 82%
    19:00 +10°C° 0 mm 5 m/s 732 mmHg 84%
    20:00 +9°C° 0 mm 5 m/s 732 mmHg 87%
    21:00 +8°C° 0 mm 4 m/s 733 mmHg 89%
    22:00 +8°C° 0 mm 4 m/s 733 mmHg 90%
    23:00 +7°C° 0 mm 4 m/s 733 mmHg 91%
    Mostrar mais